Dalhart, TX

7:44 AM CDT on April 27, 2017 (GMT -0500)
Dalhart Municipal

Weather History for KDHT - August, 2014

Change the Weather History Date:

Wednesday, August 20, 2014

  Actual Average Record
Temperature  
Mean Temperature 83 °F 75 °F  
Max Temperature 99 °F 89 °F 106 °F (2007)
Min Temperature 67 °F 61 °F 51 °F (1950)
Degree Days  
Heating Degree Days 0 0  
Month to date heating degree days 0 0  
Since 1 June heating degree days 4 13  
Since 1 July heating degree days 0 1  
Cooling Degree Days 18 10  
Month to date cooling degree days 261 217  
Year to date cooling degree days 1054 894  
Since 1 June cooling degree days 934 822  
Growing Degree Days 32 (Base 50)    
Moisture  
Dew Point 56 °F    
Average Humidity 50    
Maximum Humidity 81    
Minimum Humidity 18    
Precipitation  
Precipitation T in 0.09 in 0.53 in (2016)
Month to date precipitation 0.37 2.05  
Year to date precipitation 8.13 12.55  
Snow  
Snow 0.00 in 0.00 in 0.00 in ()
Month to date snowfall 0.0 0.0  
Since 1 June snowfall 0.0 0.0  
Since 1 July snowfall 0.0 0.0  
Snow Depth 0.00 in    
Sea Level Pressure  
Sea Level Pressure 29.72 in    
Wind  
Wind Speed 15 mph (South)    
Max Wind Speed 31 mph    
Max Gust Speed 40 mph    
Visibility 10 miles    
Events Rain , Thunderstorm    
T = Trace of Precipitation, MM = Missing Value Source: NWS Daily Summary

Daily Weather History Graph

Daily Weather History Graph

Search for Another Location

Airport or City:

Trip Planner

Search our weather history database for the weather conditions in past years. The results will help you decide how hot, cold, wet, or windy it might be!

Date:

Astronomy

Aug. 20, 2014 Rise Set
Actual Time 7:12 AM CDT 8:33 PM CDT
Civil Twilight 6:45 AM CDT 9:00 PM CDT
Nautical Twilight 6:13 AM CDT 9:32 PM CDT
Astronomical Twilight 5:39 AM CDT 10:06 PM CDT
Moon 2:57 AM CDT (8/20) 5:17 PM CDT (8/20)
Length of Visible Light 14h 14m
Length of Day
13h 21m
Waning Crescent, 20% of the Moon is Illuminated
Aug 20
Waning Crescent
Aug 25
New
Sep 2
First Quarter
Sep 8
Full
Sep 15
Last Quarter

Hourly Weather History & Observations

Time (CDT) Temp. Heat Index Dew Point Humidity Pressure Visibility Wind Dir Wind Speed Gust Speed Precip Events Conditions
12:53 AM 73.9 °F - 57.9 °F 57% 29.74 in 10.0 mi SSE 10.4 mph - N/A   Clear
1:53 AM 73.0 °F - 57.9 °F 59% 29.73 in 10.0 mi South 9.2 mph - N/A   Clear
2:53 AM 73.0 °F - 61.0 °F 66% 29.71 in 10.0 mi South 11.5 mph - N/A   Clear
3:53 AM 72.0 °F - 61.0 °F 68% 29.71 in 10.0 mi South 11.5 mph - N/A   Clear
4:53 AM 71.1 °F - 61.0 °F 70% 29.70 in 10.0 mi South 9.2 mph - N/A   Clear
5:53 AM 66.9 °F - 60.1 °F 79% 29.71 in 10.0 mi South 8.1 mph - N/A   Clear
6:53 AM 68.0 °F - 60.1 °F 76% 29.73 in 10.0 mi South 9.2 mph - N/A   Clear
7:53 AM 70.0 °F - 61.0 °F 73% 29.74 in 10.0 mi South 11.5 mph - N/A   Clear
8:53 AM 75.0 °F - 61.0 °F 62% 29.74 in 10.0 mi South 15.0 mph - N/A   Clear
9:53 AM 79.0 °F - 61.0 °F 54% 29.74 in 10.0 mi South 16.1 mph - N/A   Clear
10:53 AM 82.9 °F 83.2 °F 60.1 °F 46% 29.75 in 10.0 mi SSW 15.0 mph - N/A   Clear
11:53 AM 86.0 °F 85.4 °F 59.0 °F 40% 29.75 in 10.0 mi South 16.1 mph 24.2 mph N/A   Clear
12:53 PM 93.0 °F 91.4 °F 55.9 °F 29% 29.72 in 10.0 mi South 16.1 mph 23.0 mph N/A   Clear
1:53 PM 97.0 °F - 52.0 °F 22% 29.71 in 10.0 mi SSW 17.3 mph 25.3 mph N/A   Clear
2:53 PM 98.1 °F - 48.9 °F 19% 29.69 in 10.0 mi SSW 11.5 mph 25.3 mph N/A   Partly Cloudy
3:53 PM 97.0 °F - 46.0 °F 18% 29.68 in 10.0 mi SSW 16.1 mph 24.2 mph N/A   Partly Cloudy
4:53 PM 97.0 °F - 48.0 °F 19% 29.66 in 10.0 mi SSW 21.9 mph 27.6 mph N/A   Partly Cloudy
5:51 PM 96.8 °F - 48.2 °F 19% 29.87 in 10.0 mi SSW 23.0 mph 29.9 mph N/A Thunderstorm Partly Cloudy
5:53 PM 96.1 °F - 48.0 °F 19% 29.66 in 10.0 mi SSW 18.4 mph 29.9 mph N/A Thunderstorm Partly Cloudy
6:53 PM 87.1 °F 86.5 °F 59.0 °F 39% 29.70 in 10.0 mi SSE 15.0 mph - 0.00 in Rain Light Rain
7:53 PM 88.0 °F 86.5 °F 55.9 °F 34% 29.69 in 10.0 mi South 23.0 mph 35.7 mph 0.00 in   Partly Cloudy
8:53 PM 84.0 °F 83.0 °F 55.9 °F 38% 29.70 in 10.0 mi South 13.8 mph - N/A   Clear
9:53 PM 81.0 °F 80.8 °F 55.9 °F 42% 29.73 in 10.0 mi South 11.5 mph - N/A   Clear
10:53 PM 79.0 °F - 57.0 °F 47% 29.75 in 10.0 mi South 12.7 mph - N/A   Clear
11:53 PM 80.1 °F 80.9 °F 60.1 °F 50% 29.76 in 10.0 mi South 18.4 mph - N/A   Clear